Simultaneous Nadir Overpasses (SNOs) Predictions

Prediction of SNOs between NOAA-20 and NOAA-19 Satellite Orbit:

Table of predicted SNOs for the next 14.0 days since TLE Epoch: 6/5/2021
Index Date (NOAA-20) Time (NOAA-20) Lat,Lon (NOAA-20) SZA (NOAA-20 ) Date (NOAA-19) Time (NOAA-19) Lat,Lon (NOAA-19) SZA (NOAA-19 ) Distance(km) Time Diff (sec)
1 06/13/2021 19:35:53 78.24,-139.90 56.24 06/13/2021 19:34:38 78.24,-140.02 56.28 2.63 75
2 06/13/2021 20:26:38 -78.25, 27.34 123.75 06/13/2021 20:25:35 -78.24, 27.25 123.72 2.54 63
3 06/13/2021 21:17:23 78.24,-165.30 56.24 06/13/2021 21:16:38 78.25,-165.44 56.28 3.41 45
4 06/13/2021 22:08:08 -78.25, 1.95 123.75 06/13/2021 22:07:35 -78.25, 1.83 123.72 2.75 33
5 06/13/2021 22:58:54 78.28, 169.09 56.30 06/13/2021 22:58:38 78.26, 169.14 56.28 2.79 16
6 06/13/2021 23:49:38 -78.26, -23.44 123.74 06/13/2021 23:49:35 -78.26, -23.59 123.72 3.38 3
7 06/14/2021 00:40:24 78.29, 143.70 56.30 06/14/2021 00:40:38 78.27, 143.71 56.28 1.70 14
8 06/14/2021 01:31:09 -78.30, -49.06 123.69 06/14/2021 01:31:35 -78.27, -49.01 123.72 2.99 26
9 06/14/2021 02:21:54 78.29, 118.30 56.30 06/14/2021 02:22:38 78.28, 118.29 56.28 0.81 44
10 06/14/2021 03:12:39 -78.30, -74.45 123.69 06/14/2021 03:13:35 -78.28, -74.43 123.72 1.87 56
11 06/14/2021 04:03:24 78.29, 92.91 56.31 06/14/2021 04:04:38 78.29, 92.86 56.28 1.04 74



Historial Predications of SNOs between NOAA-20 and NOAA-19
